sat.trackr.live / text

‹ back to catalog

STARLINK-36420

NORAD 67347 · 2026-003P

PAYLOAD ACTIVE UNKNOWN

§ Identity

Operator
Country
US
Launch date
2026-01-09
Launch site
AFETR
Launch vehicle
Mass (kg)
RCS (m²)

Purposes: comms

External: N2YO · Heavens-Above · Gunter

§ Orbital elements

Epoch: 2026-05-25T01:37:59.734272Z

Period
94.27 min
Inclination
43.0001°
Eccentricity
0.0000891
Mean motion
15.27588928 rev/d
Perigee alt
482.4 km
Apogee alt
483.6 km
Semi-major
6,861.2 km
B*
4.3817e-4
RAAN
155.8389°
Arg perigee
272.9362°
Mean anomaly
87.1387°
Rev number
2,050

§ Raw data

STARLINK-364201 67347U 26003P   26145.06805248  .00011818  00000+0  43817-3 0  99932 67347  43.0001 155.8389 0000891 272.9362  87.1387 15.27588928 20501

JSON: /api/v1/satellites/67347 · /tle

For live sub-satellite position, see the globe view (requires WebGL).

§ Visibility from observer

Set your observer location to see the next 7 days of passes ≥ 10°. The values pass through the URL so the page stays shareable.

No JS? Fill the form by hand. The geolocation button needs JavaScript.